Grand Prairie, TX

3:17 PM CST on January 22, 2018 (GMT -0600)
Grand Prairie Municipal

Weather History for KGPM - October, 2012

Change the Weather History Date:

Monday, October 22, 2012

  Actual Average (KRBD) Record (KRBD)
Temperature  
Mean Temperature 76 °F -  
Max Temperature 82 °F 74 °F 90 °F (2003)
Min Temperature 71 °F 54 °F 42 °F (2006)
Cooling Degree Days 12    
Growing Degree Days 26 (Base 50)    
Moisture  
Dew Point 67 °F    
Average Humidity 78    
Maximum Humidity 88    
Minimum Humidity 54    
Precipitation  
Precipitation 0.00 in - - ()
Sea Level Pressure  
Sea Level Pressure 29.95 in    
Wind  
Wind Speed 12 mph (South)    
Max Wind Speed 17 mph    
Max Gust Speed 25 mph    
Visibility 10 miles    
Events      
Averages and records for this station are not official NWS values.
T = Trace of Precipitation, MM = Missing Value Source: NWS Daily Summary

Daily Weather History Graph

Daily Weather History Graph

Search for Another Location

Airport or City:

Trip Planner

Search our weather history database for the weather conditions in past years. The results will help you decide how hot, cold, wet, or windy it might be!

Date:

Astronomy

Oct. 22, 2012 Rise Set
Actual Time 7:37 AM CDT 6:46 PM CDT
Civil Twilight 7:12 AM CDT 7:11 PM CDT
Nautical Twilight 6:44 AM CDT 7:40 PM CDT
Astronomical Twilight 6:15 AM CDT 8:09 PM CDT
Moon 2:35 PM CDT 12:48 AM CDT
Length of Visible Light 11h 58m
Length of Day
11h 08m
First Quarter, 56% of the Moon is Illuminated
Oct 22
First Quarter
Oct 29
Full
Nov 6
Last Quarter
Nov 13
New
Nov 20
First Quarter

Hourly Weather History & Observations

Time (CDT) Temp. Heat Index Dew Point Humidity Pressure Visibility Wind Dir Wind Speed Gust Speed Precip Events Conditions
12:15 AM 77.0 °F - 68.0 °F 74% 29.90 in 10.0 mi South 17.3 mph 23.0 mph N/A   Clear
12:35 AM 77.0 °F - 68.0 °F 74% 29.91 in 10.0 mi South 13.8 mph 21.9 mph N/A   Clear
12:55 AM 77.0 °F - 68.0 °F 74% 29.91 in 10.0 mi South 13.8 mph 20.7 mph N/A   Clear
1:35 AM 73.4 °F - 68.0 °F 83% 29.91 in 10.0 mi South 13.8 mph 20.7 mph N/A   Clear
1:55 AM 73.4 °F - 68.0 °F 83% 29.91 in 10.0 mi South 11.5 mph 19.6 mph N/A   Scattered Clouds
2:15 AM 73.4 °F - 68.0 °F 83% 29.92 in 10.0 mi South 17.3 mph 25.3 mph N/A   Mostly Cloudy
2:35 AM 73.4 °F - 66.2 °F 78% 29.92 in 10.0 mi South 13.8 mph 20.7 mph N/A   Mostly Cloudy
2:55 AM 73.4 °F - 66.2 °F 78% 29.92 in 10.0 mi South 12.7 mph 18.4 mph N/A   Mostly Cloudy
3:15 AM 73.4 °F - 66.2 °F 78% 29.91 in 10.0 mi South 12.7 mph 23.0 mph N/A   Scattered Clouds
3:55 AM 73.4 °F - 66.2 °F 78% 29.92 in 10.0 mi South 13.8 mph 24.2 mph N/A   Scattered Clouds
4:15 AM 73.4 °F - 68.0 °F 83% 29.92 in 10.0 mi South 12.7 mph 21.9 mph N/A   Scattered Clouds
4:35 AM 73.4 °F - 68.0 °F 83% 29.93 in 10.0 mi South 12.7 mph 18.4 mph N/A   Scattered Clouds
4:55 AM 73.4 °F - 68.0 °F 83% 29.93 in 10.0 mi South 13.8 mph 18.4 mph N/A   Mostly Cloudy
5:15 AM 71.6 °F - 68.0 °F 88% 29.94 in 10.0 mi South 11.5 mph 16.1 mph N/A   Scattered Clouds
5:35 AM 71.6 °F - 68.0 °F 88% 29.94 in 10.0 mi South 9.2 mph - N/A   Clear
5:55 AM 71.6 °F - 68.0 °F 88% 29.94 in 10.0 mi South 9.2 mph - N/A   Clear
6:15 AM 71.6 °F - 68.0 °F 88% 29.95 in 10.0 mi South 10.4 mph 18.4 mph N/A   Clear
6:35 AM 71.6 °F - 68.0 °F 88% 29.95 in 10.0 mi South 9.2 mph 17.3 mph N/A   Clear
6:50 AM 73.4 °F - 68.0 °F 83% 29.96 in 10.0 mi SSE 9.2 mph 20.7 mph N/A   Scattered Clouds
7:50 AM 73.4 °F - 68.0 °F 83% 29.97 in 10.0 mi South 9.2 mph 20.7 mph N/A   Scattered Clouds
8:50 AM 73.4 °F - 69.8 °F 88% 30.00 in 10.0 mi SSE 6.9 mph - N/A   Mostly Cloudy
9:50 AM 75.2 °F - 69.8 °F 83% 30.01 in 10.0 mi SSE 11.5 mph 20.7 mph N/A   Scattered Clouds
10:50 AM 78.8 °F - 69.8 °F 74% 30.02 in 10.0 mi South 13.8 mph 23.0 mph N/A   Scattered Clouds
11:50 AM 82.4 °F 84.6 °F 66.2 °F 58% 30.02 in 10.0 mi South 12.7 mph 21.9 mph N/A   Scattered Clouds
12:50 PM 82.4 °F 84.6 °F 66.2 °F 58% 30.02 in 10.0 mi South 11.5 mph 20.7 mph N/A   Scattered Clouds
1:50 PM 82.4 °F 83.9 °F 64.4 °F 54% 29.99 in 10.0 mi SSW 12.7 mph 17.3 mph N/A   Mostly Cloudy
2:50 PM 75.2 °F - 62.6 °F 65% 29.97 in 10.0 mi North 9.2 mph - N/A   Mostly Cloudy
3:50 PM 75.2 °F - 62.6 °F 65% 29.97 in 10.0 mi NNW 5.8 mph - N/A   Mostly Cloudy
4:50 PM 77.0 °F - 62.6 °F 61% 29.93 in 10.0 mi NNE 4.6 mph - N/A   Scattered Clouds
5:50 PM 77.0 °F - 64.4 °F 65% 29.95 in 10.0 mi ESE 8.1 mph - N/A   Mostly Cloudy
6:50 PM 75.2 °F - 66.2 °F 73% 29.93 in 10.0 mi SE 8.1 mph - N/A   Mostly Cloudy
9:15 PM 73.4 °F - 68.0 °F 83% 29.93 in 10.0 mi South 8.1 mph - N/A   Clear
9:55 PM 73.4 °F - 68.0 °F 83% 29.94 in 10.0 mi South 6.9 mph - N/A   Clear
10:35 PM 71.6 °F - 68.0 °F 88% 29.94 in 10.0 mi South 4.6 mph - N/A   Clear
10:55 PM 71.6 °F - 66.2 °F 83% 29.95 in 10.0 mi South 5.8 mph - N/A   Clear
11:15 PM 71.6 °F - 66.2 °F 83% 29.95 in 10.0 mi South 4.6 mph - N/A   Clear
11:35 PM 71.6 °F - 66.2 °F 83% 29.95 in 10.0 mi South 4.6 mph - N/A   Clear
11:55 PM 71.6 °F - 64.4 °F 78% 29.95 in 10.0 mi South 6.9 mph - N/A   Clear